AirNav   Pilot Hours Calculator
 
 936 users online  

0R5 David G Joyce Airport
Winnfield, Louisiana, USA

GOING TO WINNFIELD?


FAA INFORMATION EFFECTIVE 26 JANUARY 2023

Location

FAA Identifier: 0R5
Lat/Long: 31-57-49.1840N 092-39-36.9380W
31-57.819733N 092-39.615633W
31.9636622,-92.6602606
(estimated)
Elevation: 146 ft. / 44.5 m (surveyed)
Variation: 02E (2010)
From city: 3 miles NW of WINNFIELD, LA
Time zone: UTC -6 (UTC -5 during Daylight Saving Time)
Zip code: 71483

Airport Operations

Airport use: Open to the public
Activation date: 09/1945
Control tower: no
ARTCC: HOUSTON CENTER
FSS: DE RIDDER FLIGHT SERVICE STATION
NOTAMs facility: DRI (NOTAM-D service available)
Attendance: UNATNDD
Wind indicator: yes
Segmented circle: no
Lights: MIRL RWY 09/27 OPR SS-SR AND PRESET LOW INTST; TO INCR INTST AND ACTVT REIL RWY 09 AND 27 - CTAF.
Beacon: white-green (lighted land airport)
ROTG BCN OBSCURED BY TREES SOUTH, WEST AND EAST. Operates sunset to sunrise.

Airport Communications

CTAF/UNICOM: 122.7
POLK APPROACH: 125.4
POLK DEPARTURE: 125.4

Nearby radio navigation aids

VOR radial/distance  VOR name  Freq  Var
SWBr122/1.0SAWMILL VOR/DME113.7502E

 
NDB name  Hdg/Dist  Freq  Var  ID
NATCHITOCHES045/28.140704EOOC --- --- -.-.
RUSTON182/38.936803EROQ .-. --- --.-

Airport Services

Parking: tiedowns
Airframe service: NONE
Powerplant service: NONE
Bottled oxygen: NONE
Bulk oxygen: NONE

Runway Information

Runway 9/27

Dimensions: 3002 x 100 ft. / 915 x 30 m
Surface: asphalt, in good condition
Weight bearing capacity: 
Single wheel: 4.0
Runway edge lights: medium intensity
RUNWAY 9  RUNWAY 27
Latitude: 31-57.817883N31-57.823033N
Longitude: 092-39.906417W092-39.325583W
Elevation: 146.0 ft.118.0 ft.
Traffic pattern: leftleft
Runway heading: 087 magnetic, 089 true267 magnetic, 269 true
Markings: nonprecision, in fair conditionnonprecision, in fair condition
Visual slope indicator: 2-light PAPI on left (3.00 degrees glide path)2-light PAPI on left (3.45 degrees glide path)
Runway end identifier lights: yesyes
Touchdown point: yes, no lightsyes, no lights
Obstructions: 101 ft. trees, 3043 ft. from runway, 159 ft. left of centerline, 28:1 slope to clear68 ft. trees, 1024 ft. from runway, 124 ft. right of centerline, 12:1 slope to clear

Airport Ownership and Management from official FAA records

Ownership: Publicly-owned
Owner: CITY OF WINNFIELD
PO BOX 509
WINNFIELD, LA 71483
Phone 318-628-3939
Manager: AUNDRA BASS
PO BOX 509
WINNFIELD, LA 71483
Phone (318) 628-3939

Airport Operational Statistics

Aircraft based on the field: 1
Single engine airplanes: 1
    
Aircraft operations: avg 86/week *
56% transient general aviation
44% local general aviation
* for 12-month period ending 16 December 2020

Additional Remarks

FOR CD CTC POLK APCH AT 337-531-2352.

Instrument Procedures

NOTE: All procedures below are presented as PDF files. If you need a reader for these files, you should download the free Adobe Reader.

NOT FOR NAVIGATION. Please procure official charts for flight.
FAA instrument procedures published for use from 26 January 2023 at 0901Z to 23 February 2023 at 0900z.

 
IAPs - Instrument Approach Procedures
RNAV (GPS) RWY 09   download
RNAV (GPS) RWY 27   download
NOTE: Special Take-Off Minimums/Departure Procedures apply   download (116KB)

Other nearby airports with instrument procedures:

F88 - Jonesboro Airport (15 nm N)
KIER - Natchitoches Regional Airport (26 nm SW)
0R7 - The Red River Airport (33 nm W)
KRSN - Ruston Regional Airport (33 nm N)
KAEX - Alexandria International Airport (39 nm S)
 
Loc | Ops | Rwys | IFR | FBO | Links
Com | Nav | Svcs | Stats | Notes
Area around 0R5 (David G Joyce Airport)
 
Road maps at: MapQuest Bing Google
 
Aerial photo
WARNING: Photo may not be current or correct
Aerial photo of 0R5 (David G Joyce Airport)
Photo by Gene Greenlees, MD
Taken in June 2010

Do you have a better or more recent aerial photo of David G Joyce Airport that you would like to share? If so, please send us your photo.

 
Sectional chart

 
Airport distance calculator
Flying to David G Joyce Airport? Find the distance to fly.

From to 0R5

Sunrise and sunset
Times for 28-Jan-2023
 Local
(UTC-6)
 Zulu
(UTC)
Morning civil twilight06:4212:42
Sunrise07:0813:08
Sunset17:4023:40
Evening civil twilight18:0600:06

Current date and time
Zulu (UTC)  29-Jan-2023 02:33:47
Local (UTC-6)  28-Jan-2023 20:33:47
 
METAR
KIER 
26nm SW 
290215Z AUTO 16011KT 10SM OVC025 18/14 A3007 RMK AO2 T01820143
KRSN 
33nm N 
290215Z AUTO 17013KT 10SM SCT070 BKN085 17/15 A3005 RMK AO2 T01700152 $
KAEX 
38nm S 
290153Z 17010KT 10SM BKN090 18/13 A3010 RMK AO2 SLP196 T01780128
KESF 
39nm SE 
290153Z AUTO 16007KT 10SM BKN090 18/12 A3011 RMK AO2 SLP195 T01830117
KAQV 
44nm SW 
290157Z AUTO VRB05G18KT 10SM BKN024 OVC029 18/14 A3005 RMK AO2 SLP177 T01780139
KMLU 
46nm NE 
290153Z 18008G19KT 10SM OVC090 19/11 A3008 RMK AO2 SLP185 T01890111
TAF
KAEX 
38nm S 
281730Z 2818/2918 15015G22KT P6SM BKN060 FM290600 16014G21KT P6SM OVC027 FM291100 17012G18KT P6SM VCSH OVC018 PROB30 2912/2914 4SM -SHRA BR OVC007 FM291400 16013G20KT 5SM -SHRA BR VCTS OVC006CB
KMLU 
46nm NE 
281720Z 2818/2918 VRB03KT P6SM -RA OVC060 FM290300 17010KT P6SM OVC030 FM290900 18010G15KT P6SM OVC015 FM291200 17007KT P6SM -RA OVC050 FM291400 16004KT 4SM -RA BR OVC007 FM291600 18006KT 4SM SHRA BR OVC003
NOTAMs
Click for the latest NOTAMs
NOTAMs are issued by the DoD/FAA and will open in a separate window not controlled by AirNav.

 

 
 

Would you like to see your business listed on this page?

 If your business provides an interesting product or service to pilots, flight crews, aircraft, or users of the David G Joyce Airport, you should consider listing it here.  To start the listing process, click on the button below
 
Add a business
 

Other Pages about David G Joyce Airport

Update a link
 
Copyright © AirNav, LLC. All rights reserved. Privacy Policy  Contact